GW0019 Weather Reports


time (UTC)temp
C
wind
direction
speed
KPH
gust
KPH
rain 1hr
cm
rain 24hr
cm
rain mn
cm
humidity
%
barometer
mb
20240614110813 21 252 8.0 9.7 0.00 0.00 0.00 74 1017.7
20240614110312 21 330 3.2 6.4 0.00 0.00 0.00 74 1018.0
20240614105811 21 336 9.7 9.7 0.00 0.00 0.00 74 1017.9
20240614105309 21 6 12.9 29.0 0.00 0.00 0.00 74 1018.9
20240614104808 22 226 6.4 24.1 0.00 0.00 0.00 74 1017.7
20240614104306 22 243 20.9 29.0 0.00 0.00 0.00 74 1018.7
20240614103805 23 257 25.7 30.6 0.00 0.00 0.00 74 1019.5
20240614103303 23 290 8.0 12.9 0.00 0.00 0.00 74 1019.7
20240614102802 23 302 17.7 17.7 0.00 0.00 0.00 74 1020.3
20240614102300 23 75 0.0 20.9 0.00 0.00 0.00 74 1020.4
20240614101758 23 283 9.7 33.8 0.00 0.00 0.00 74 1020.8
20240614101257 23 330 9.7 20.9 0.00 0.00 0.00 74 1020.8
20240614100756 23 354 8.0 17.7 0.00 0.00 0.00 74 1020.9
20240614100255 23 14 8.0 16.1 0.00 0.00 0.00 74 1021.1
20240614095754 23 338 17.7 17.7 0.00 0.00 0.00 74 1021.3
20240614095252 23 0 11.3 19.3 0.00 0.00 0.00 74 1021.1
20240614094753 23 317 24.1 29.0 0.00 0.00 0.00 74 1021.0
20240614094251 23 258 4.8 24.1 0.00 0.00 0.00 74 1021.3
20240614093751 23 326 8.0 14.5 0.00 0.00 0.00 74 1021.1
20240614093250 23 324 3.2 22.5 0.00 0.00 0.00 74 1021.3
20240614092750 23 298 20.9 20.9 0.00 0.00 0.00 74 1021.0
20240614092249 23 301 9.7 16.1 0.00 0.00 0.00 74 1021.0
20240614091749 23 4 9.7 17.7 0.00 0.00 0.00 74 1020.8
20240614091247 23 357 6.4 14.5 0.00 0.00 0.00 74 1020.7
20240614090745 23 334 4.8 16.1 0.00 0.00 0.00 74 1020.7
20240614090243 23 321 6.4 14.5 0.00 0.00 0.00 74 1020.4
20240614085743 23 348 9.7 16.1 0.00 0.00 0.00 74 1020.3
20240614085242 23 292 12.9 14.5 0.00 0.00 0.00 74 1020.7
20240614084740 23 270 11.3 19.3 0.00 0.00 0.00 74 1020.6
20240614084238 23 272 9.7 14.5 0.00 0.00 0.00 74 1020.7
20240614083737 23 284 6.4 9.7 0.00 0.00 0.00 74 1020.1
20240614083237 22 275 8.0 11.3 0.00 0.00 0.00 74 1020.3
20240614082736 22 266 9.7 9.7 0.00 0.00 0.00 74 1020.7
20240614082235 22 254 3.2 8.0 0.00 0.00 0.00 74 1020.3
20240614081733 22 252 6.4 8.0 0.00 0.00 0.00 74 1019.9
20240614081232 22 307 3.2 6.4 0.00 0.00 0.00 74 1019.8
20240614080731 22 290 3.2 4.8 0.00 0.00 0.00 74 1020.3
20240614080229 22 230 4.8 8.0 0.00 0.00 0.00 74 1020.1
20240614075729 22 270 0.0 4.8 0.00 0.00 0.00 74 1020.4
20240614075229 22 274 4.8 4.8 0.00 0.00 0.00 74 1020.2
20240614074728 22 328 3.2 3.2 0.00 0.00 0.00 74 1020.5
20240614074227 22 40 3.2 3.2 0.00 0.00 0.00 74 1020.4
20240614073726 22 74 1.6 1.6 0.00 0.00 0.00 74 1020.2
20240614073225 22 270 0.0 0.0 0.00 0.00 0.00 74 1020.2
20240614072723 22 270 0.0 0.0 0.00 0.00 0.00 74 1020.4
20240614072222 22 81 0.0 3.2 0.00 0.00 0.00 74 1020.2
20240614071721 22 90 3.2 3.2 0.00 0.00 0.00 74 1020.1
20240614071218 22 0 0.0 1.6 0.00 0.00 0.00 74 1020.0
20240614070716 22 300 1.6 3.2 0.00 0.00 0.00 74 1020.1
20240614070215 22 248 3.2 4.8 0.00 0.00 0.00 74 1020.2
20240614065714 23 261 4.8 6.4 0.00 0.00 0.00 74 1020.1
20240614065212 22 123 0.0 3.2 0.00 0.00 0.00 74 1020.2
20240614064711 22 90 0.0 1.6 0.00 0.00 0.00 74 1020.1
20240614064210 22 229 0.0 0.0 0.00 0.00 0.00 74 1020.1
20240614063708 22 229 0.0 0.0 0.00 0.00 0.00 74 1019.9
20240614063207 22 229 0.0 0.0 0.00 0.00 0.00 74 1019.9
20240614062706 22 229 0.0 0.0 0.00 0.00 0.00 74 1019.8
20240614062205 22 229 0.0 3.2 0.00 0.00 0.00 74 1019.6
20240614061703 22 251 3.2 3.2 0.00 0.00 0.00 74 1019.6
20240614061202 23 257 3.2 4.8 0.00 0.00 0.00 74 1019.6
20240614060700 22 261 3.2 4.8 0.00 0.00 0.00 74 1019.7
20240614060200 23 241 3.2 6.4 0.00 0.00 0.00 74 1019.8
20240614055659 23 254 4.8 6.4 0.00 0.00 0.00 74 1019.6
20240614055157 23 260 3.2 4.8 0.00 0.00 0.00 74 1019.7
20240614054657 23 262 0.0 1.6 0.00 0.00 0.00 74 1019.8
20240614054156 23 264 1.6 3.2 0.00 0.00 0.00 74 1019.7
20240614053654 23 258 3.2 3.2 0.00 0.00 0.00 74 1019.7
20240614053153 23 254 0.0 0.0 0.00 0.00 0.00 74 1019.7
20240614052650 23 352 0.0 0.0 0.00 0.00 0.00 74 1019.6
20240614052149 23 265 0.0 3.2 0.00 0.00 0.00 74 1019.5
20240614051646 23 297 1.6 3.2 0.00 0.00 0.00 74 1019.5
20240614051145 23 246 0.0 3.2 0.00 0.00 0.00 74 1019.5
20240614050643 23 264 0.0 4.8 0.00 0.00 0.00 74 1019.5
20240614050143 23 165 0.0 6.4 0.00 0.00 0.00 74 1019.3
20240614045642 23 255 3.2 6.4 0.00 0.00 0.00 74 1019.2
20240614045141 23 255 0.0 4.8 0.00 0.00 0.00 74 1019.1
20240614044639 23 257 1.6 6.4 0.00 0.00 0.00 74 1018.7
20240614044138 23 265 0.0 8.0 0.00 0.00 0.00 74 1018.5
20240614043636 23 201 8.0 9.7 0.00 0.00 0.00 74 1018.4
20240614043135 23 203 6.4 8.0 0.00 0.00 0.00 74 1018.4
20240614042631 24 212 9.7 9.7 0.00 0.00 0.00 74 1018.5
20240614042130 24 206 3.2 9.7 0.00 0.00 0.00 74 1018.3
20240614041628 24 165 3.2 8.0 0.00 0.00 0.00 75 1018.3
20240614041128 24 200 8.0 8.0 0.00 0.00 0.00 74 1018.2
20240614040628 24 206 4.8 8.0 0.00 0.00 0.00 75 1018.3
20240614040127 24 204 3.2 6.4 0.00 0.00 0.00 75 1018.5
20240614035626 24 203 6.4 6.4 0.00 0.00 0.00 75 1018.2
20240614035126 25 209 1.6 4.8 0.00 0.00 0.00 75 1018.5
20240614034625 25 215 0.0 3.2 0.00 0.00 0.00 75 1018.4
20240614034125 25 212 0.0 9.7 0.00 0.00 0.00 75 1018.1
20240614033624 25 180 0.0 6.4 0.00 0.00 0.00 75 1018.0
20240614033123 25 197 4.8 8.0 0.00 0.00 0.00 75 1018.0
20240614032621 25 248 3.2 6.4 0.00 0.00 0.00 75 1018.1
20240614032118 25 161 3.2 6.4 0.00 0.00 0.00 75 1017.9
20240614031617 25 222 4.8 8.0 0.00 0.00 0.00 75 1017.8
20240614031117 25 200 4.8 8.0 0.00 0.00 0.00 75 1017.5
20240614030615 25 209 0.0 8.0 0.00 0.00 0.00 75 1017.4
20240614030114 25 162 1.6 11.3 0.00 0.00 0.00 75 1017.5
20240614025613 25 199 6.4 9.7 0.00 0.00 0.00 75 1017.3
20240614025112 25 146 4.8 6.4 0.00 0.00 0.00 75 1017.2
20240614024611 25 201 8.0 9.7 0.00 0.00 0.00 75 1017.0
20240614024110 25 200 9.7 9.7 0.00 0.00 0.00 75 1017.1
20240614023609 25 202 8.0 11.3 0.00 0.00 0.00 75 1017.0
20240614023106 25 202 8.0 11.3 0.00 0.00 0.00 75 1016.8
20240614022604 25 200 6.4 8.0 0.00 0.00 0.00 75 1016.8
20240614022103 25 213 9.7 9.7 0.00 0.00 0.00 75 1016.6
20240614021600 25 200 4.8 8.0 0.00 0.00 0.00 75 1016.7
20240614021100 26 202 8.0 9.7 0.00 0.00 0.00 75 1016.5
20240614020558 26 196 4.8 8.0 0.00 0.00 0.00 75 1016.7
20240614020059 26 174 6.4 9.7 0.00 0.00 0.00 75 1016.7
20240614015558 26 156 6.4 11.3 0.00 0.00 0.00 75 1016.6
20240614015057 26 200 1.6 8.0 0.00 0.00 0.00 75 1016.8
20240614014556 26 170 4.8 8.0 0.00 0.00 0.00 75 1016.5
20240614014054 26 152 4.8 8.0 0.00 0.00 0.00 75 1016.8
20240614013553 26 182 4.8 8.0 0.00 0.00 0.00 75 1016.7
20240614013052 26 169 4.8 6.4 0.00 0.00 0.00 75 1016.8
20240614012551 27 165 4.8 8.0 0.00 0.00 0.00 75 1016.8
20240614012051 27 155 8.0 9.7 0.00 0.00 0.00 75 1016.8
20240614011549 27 163 3.2 8.0 0.00 0.00 0.00 75 1016.8
20240614011048 27 173 6.4 9.7 0.00 0.00 0.00 75 1016.6
20240614010547 27 198 6.4 11.3 0.00 0.00 0.00 75 1016.6
20240614010046 28 195 3.2 6.4 0.00 0.00 0.00 75 1017.1
20240614005546 28 155 4.8 8.0 0.00 0.00 0.00 75 1016.9
20240614005045 28 166 4.8 6.4 0.00 0.00 0.00 75 1016.9
20240614004543 28 171 6.4 11.3 0.00 0.00 0.00 75 1017.0
20240614004041 28 143 3.2 8.0 0.00 0.00 0.00 76 1016.8
20240614003540 28 196 6.4 11.3 0.00 0.00 0.00 76 1017.0
20240614003039 28 156 3.2 11.3 0.00 0.00 0.00 76 1017.2
20240614002537 29 159 6.4 11.3 0.00 0.00 0.00 76 1017.1
20240614002037 29 194 9.7 12.9 0.00 0.00 0.00 76 1017.1
20240614001535 29 193 9.7 11.3 0.00 0.00 0.00 76 1017.3
20240614001033 29 192 6.4 11.3 0.00 0.00 0.00 76 1017.5
20240614000532 29 170 4.8 12.9 0.00 0.00 0.00 76 1017.4
20240614000032 29 196 11.3 11.3 0.00 0.00 0.00 76 1017.5
20240613235530 29 191 8.0 14.5 0.00 0.00 0.00 76 1017.6
20240613235028 30 157 4.8 11.3 0.00 0.00 0.00 76 1017.5
20240613234526 30 192 11.3 14.5 0.00 0.00 0.00 76 1017.5
20240613234024 30 190 4.8 17.7 0.00 0.00 0.00 76 1017.4
20240613233522 30 164 3.2 11.3 0.00 0.00 0.00 76 1017.5
20240613233021 30 173 1.6 9.7 0.00 0.00 0.00 76 1017.5
20240613232521 30 160 8.0 12.9 0.00 0.00 0.00 76 1017.9
20240613232020 30 196 9.7 14.5 0.00 0.00 0.00 76 1017.7
20240613231520 30 254 8.0 14.5 0.00 0.00 0.00 76 1017.7
20240613231019 30 184 6.4 11.3 0.00 0.00 0.00 76 1017.6
20240613230518 30 229 8.0 9.7 0.00 0.00 0.00 76 1017.7
20240613230017 30 183 11.3 14.5 0.00 0.00 0.00 76 1017.6
20240613225514 30 203 6.4 14.5 0.00 0.00 0.00 76 1017.7
20240613225013 30 196 11.3 14.5 0.00 0.00 0.00 76 1017.7
20240613224509 30 197 8.0 11.3 0.00 0.00 0.00 76 1017.7
20240613223941 30 166 11.3 12.9 0.00 0.00 0.00 76 1017.7
20240613223440 30 198 9.7 16.1 0.00 0.00 0.00 76 1017.7
20240613222939 30 242 9.7 14.5 0.00 0.00 0.00 76 1017.7
20240613222438 30 158 3.2 11.3 0.00 0.00 0.00 76 1017.9
20240613221937 30 157 9.7 19.3 0.00 0.00 0.00 76 1017.8
20240613221435 30 169 4.8 14.5 0.00 0.00 0.00 76 1018.0
20240613220935 30 180 6.4 14.5 0.00 0.00 0.00 76 1017.7
20240613220433 30 222 8.0 16.1 0.00 0.00 0.00 76 1017.9
20240613215929 30 162 4.8 11.3 0.00 0.00 0.00 76 1018.0
20240613215429 30 196 4.8 12.9 0.00 0.00 0.00 76 1018.0
20240613214928 30 192 11.3 16.1 0.00 0.00 0.00 76 1018.0
20240613214427 30 222 16.1 17.7 0.00 0.00 0.00 76 1017.9
20240613213925 30 199 16.1 20.9 0.00 0.00 0.00 76 1017.9
20240613213423 30 170 4.8 11.3 0.00 0.00 0.00 76 1018.0
20240613212924 30 206 9.7 19.3 0.00 0.00 0.00 76 1017.9
20240613212422 30 200 9.7 24.1 0.00 0.00 0.00 76 1018.0
20240613211920 30 240 8.0 24.1 0.00 0.00 0.00 76 1017.8
20240613211419 30 197 3.2 17.7 0.00 0.00 0.00 76 1018.0
20240613210919 31 198 12.9 14.5 0.00 0.00 0.00 76 1018.1
20240613210419 31 294 1.6 14.5 0.00 0.00 0.00 76 1018.2
20240613205917 31 166 0.0 12.9 0.00 0.00 0.00 76 1018.1
20240613205416 31 256 9.7 17.7 0.00 0.00 0.00 76 1018.3
20240613204916 30 155 4.8 11.3 0.00 0.00 0.00 76 1018.1
20240613204415 30 142 12.9 14.5 0.00 0.00 0.00 76 1018.4
20240613203916 30 199 8.0 17.7 0.00 0.00 0.00 76 1018.4
20240613203414 30 208 11.3 16.1 0.00 0.00 0.00 76 1018.4
20240613202913 30 198 11.3 16.1 0.00 0.00 0.00 76 1018.5
20240613202411 30 192 8.0 14.5 0.00 0.00 0.00 76 1018.6
20240613201910 30 172 0.0 14.5 0.00 0.00 0.00 76 1018.3
20240613201409 30 179 8.0 14.5 0.00 0.00 0.00 76 1018.4
20240613200907 30 193 8.0 11.3 0.00 0.00 0.00 76 1018.4
20240613200406 30 248 4.8 12.9 0.00 0.00 0.00 76 1018.5
20240613195905 30 216 6.4 9.7 0.00 0.00 0.00 76 1018.7
20240613195405 30 250 11.3 17.7 0.00 0.00 0.00 76 1018.6
20240613194903 30 216 9.7 20.9 0.00 0.00 0.00 76 1018.7
20240613194401 30 212 4.8 11.3 0.00 0.00 0.00 76 1018.6
20240613193900 30 240 8.0 14.5 0.00 0.00 0.00 76 1018.8
20240613193400 30 247 11.3 16.1 0.00 0.00 0.00 76 1018.7
20240613192857 30 220 4.8 12.9 0.00 0.00 0.00 76 1018.7
20240613192357 30 223 9.7 12.9 0.00 0.00 0.00 76 1018.8
20240613191855 30 205 6.4 14.5 0.00 0.00 0.00 76 1019.1
20240613191354 30 170 6.4 14.5 0.00 0.00 0.00 76 1019.1
20240613190853 30 210 4.8 11.3 0.00 0.00 0.00 76 1018.9
20240613190351 29 245 12.9 19.3 0.00 0.00 0.00 76 1019.2
20240613185850 30 205 11.3 11.3 0.00 0.00 0.00 76 1019.1
20240613185348 29 198 8.0 14.5 0.00 0.00 0.00 76 1019.1
20240613184847 29 181 8.0 12.9 0.00 0.00 0.00 76 1019.3
20240613184345 28 197 8.0 19.3 0.00 0.00 0.00 76 1019.2
20240613183844 29 243 9.7 12.9 0.00 0.00 0.00 76 1019.3
20240613183343 29 253 11.3 19.3 0.00 0.00 0.00 76 1019.5
20240613182842 29 201 9.7 12.9 0.00 0.00 0.00 76 1019.4
20240613182341 28 168 3.2 9.7 0.00 0.00 0.00 76 1019.4
20240613181838 28 204 11.3 14.5 0.00 0.00 0.00 76 1019.6
20240613181336 28 201 12.9 14.5 0.00 0.00 0.00 76 1019.7
20240613180835 28 195 3.2 14.5 0.00 0.00 0.00 76 1019.4
20240613180333 28 204 3.2 17.7 0.00 0.00 0.00 76 1019.5
20240613175833 28 254 8.0 16.1 0.00 0.00 0.00 75 1019.5
20240613175332 29 180 4.8 14.5 0.00 0.00 0.00 76 1019.6
20240613174831 29 206 14.5 17.7 0.00 0.00 0.00 76 1019.6
20240613174330 28 195 3.2 12.9 0.00 0.00 0.00 75 1019.6
20240613173829 28 206 16.1 16.1 0.00 0.00 0.00 76 1019.5
20240613173327 28 197 9.7 12.9 0.00 0.00 0.00 75 1019.7
20240613172827 28 270 8.0 16.1 0.00 0.00 0.00 76 1019.7
20240613172326 28 266 4.8 8.0 0.00 0.00 0.00 75 1019.7
20240613171825 28 201 3.2 16.1 0.00 0.00 0.00 75 1019.8
20240613171324 28 168 6.4 14.5 0.00 0.00 0.00 76 1019.6
20240613170824 28 203 4.8 16.1 0.00 0.00 0.00 75 1019.7
20240613170324 27 198 9.7 16.1 0.00 0.00 0.00 75 1019.7
20240613165823 27 191 6.4 16.1 0.00 0.00 0.00 75 1019.6
20240613165321 28 219 6.4 11.3 0.00 0.00 0.00 75 1019.4
20240613164819 28 243 1.6 11.3 0.00 0.00 0.00 76 1019.6
20240613164317 28 168 0.0 16.1 0.00 0.00 0.00 75 1019.4
20240613163815 28 209 4.8 6.4 0.00 0.00 0.00 75 1019.4
20240613163315 28 236 4.8 16.1 0.00 0.00 0.00 75 1019.7
20240613162813 27 239 16.1 17.7 0.00 0.00 0.00 75 1019.8
20240613162312 27 257 12.9 12.9 0.00 0.00 0.00 75 1019.9
20240613161812 27 231 9.7 11.3 0.00 0.00 0.00 75 1019.7
20240613161311 27 239 9.7 17.7 0.00 0.00 0.00 75 1019.6
20240613160810 27 226 8.0 14.5 0.00 0.00 0.00 75 1019.9
20240613160309 27 266 4.8 16.1 0.00 0.00 0.00 75 1019.6
20240613155808 27 198 6.4 9.7 0.00 0.00 0.00 75 1019.8
20240613155307 27 221 8.0 14.5 0.00 0.00 0.00 75 1019.7
20240613154805 27 205 4.8 8.0 0.00 0.00 0.00 75 1019.6
20240613154303 27 197 11.3 11.3 0.00 0.00 0.00 75 1019.7
20240613153803 27 195 6.4 16.1 0.00 0.00 0.00 75 1019.5
20240613153302 27 199 4.8 8.0 0.00 0.00 0.00 75 1019.7
20240613152802 27 239 4.8 9.7 0.00 0.00 0.00 75 1019.9
20240613152306 26 228 11.3 14.5 0.00 0.00 0.00 75 1019.9
20240613151800 27 217 4.8 12.9 0.00 0.00 0.00 75 1019.8
20240613151258 27 211 4.8 8.0 0.00 0.00 0.00 75 1019.9
20240613150756 27 197 4.8 8.0 0.00 0.00 0.00 75 1019.7
20240613150253 26 267 6.4 8.0 0.00 0.00 0.00 75 1019.7
20240613145752 26 215 4.8 6.4 0.00 0.00 0.00 75 1019.8
20240613145250 26 230 11.3 12.9 0.00 0.00 0.00 75 1019.8
20240613144750 26 184 6.4 9.7 0.00 0.00 0.00 75 1020.0
20240613144249 26 194 4.8 6.4 0.00 0.00 0.00 75 1019.9
20240613143749 26 192 6.4 8.0 0.00 0.00 0.00 75 1019.8
20240613143248 26 248 0.0 4.8 0.00 0.00 0.00 75 1019.9
20240613142747 26 238 4.8 6.4 0.00 0.00 0.00 75 1019.8
20240613142245 25 186 0.0 8.0 0.00 0.00 0.00 75 1019.9
20240613141744 25 195 8.0 8.0 0.00 0.00 0.00 75 1019.9
20240613141241 25 253 4.8 11.3 0.00 0.00 0.00 75 1020.0
20240613140740 25 203 1.6 8.0 0.00 0.00 0.00 75 1020.1
20240613140238 25 120 0.0 6.4 0.00 0.00 0.00 75 1019.8
20240613135737 24 198 0.0 12.9 0.00 0.00 0.00 75 1019.7
20240613135235 25 208 4.8 6.4 0.00 0.00 0.00 75 1019.9
20240613134734 24 206 8.0 8.0 0.00 0.00 0.00 75 1019.7
20240613134233 24 203 0.0 6.4 0.00 0.00 0.00 75 1019.9
20240613133732 24 225 4.8 8.0 0.00 0.00 0.00 75 1019.7
20240613133232 23 156 3.2 8.0 0.00 0.00 0.00 74 1019.8
20240613132731 23 222 4.8 6.4 0.00 0.00 0.00 74 1019.8
20240613132231 23 206 3.2 4.8 0.00 0.00 0.00 74 1019.6
20240613131730 23 166 3.2 4.8 0.00 0.00 0.00 74 1019.8
20240613131228 23 180 3.2 4.8 0.00 0.00 0.00 74 1019.9
20240613130727 23 159 3.2 4.8 0.00 0.00 0.00 74 1019.7
20240613130226 22 227 4.8 6.4 0.00 0.00 0.00 74 1019.7
20240613125724 22 249 1.6 4.8 0.00 0.00 0.00 74 1019.7
20240613125222 22 217 3.2 4.8 0.00 0.00 0.00 74 1019.7
20240613124721 21 214 3.2 6.4 0.00 0.00 0.00 74 1019.7
20240613124219 21 175 0.0 4.8 0.00 0.00 0.00 74 1019.4
20240613123718 21 143 3.2 4.8 0.00 0.00 0.00 74 1019.4
20240613123217 21 201 3.2 6.4 0.00 0.00 0.00 74 1019.4
20240613122714 22 151 0.0 3.2 0.00 0.00 0.00 74 1019.2
20240613122212 22 206 0.0 3.2 0.00 0.00 0.00 74 1019.4
20240613121711 21 254 0.0 1.6 0.00 0.00 0.00 74 1019.4
20240613121209 21 221 0.0 4.8 0.00 0.00 0.00 74 1019.4
20240613120708 20 212 3.2 3.2 0.00 0.00 0.00 74 1019.4
20240613120207 20 198 4.8 4.8 0.00 0.00 0.00 73 1019.2
20240613115705 20 240 0.0 0.0 0.00 0.00 0.00 73 1019.3
20240613115204 19 240 0.0 0.0 0.00 0.00 0.00 73 1019.4
20240613114702 19 233 0.0 1.6 0.00 0.00 0.00 73 1019.3
20240613114200 19 189 3.2 3.2 0.00 0.00 0.00 73 1018.9
20240613113659 18 198 1.6 4.8 0.00 0.00 0.00 73 1019.1
20240613113159 18 191 3.2 3.2 0.00 0.00 0.00 73 1018.9
20240613112657 18 206 0.0 1.6 0.00 0.00 0.00 73 1019.3
20240613112156 19 60 0.0 0.0 0.00 0.00 0.00 73 1019.3
20240613111655 18 60 0.0 0.0 0.00 0.00 0.00 73 1018.8